Time,TemperatureF,DewpointF,PressureIn,WindDirection,WindDirectionDegrees,WindSpeedMPH,WindSpeedGustMPH,Humidity,HourlyPrecipIn,Conditions,Clouds,dailyrainin,SoftwareType,DateUTC
2013-01-12 00:00:00,64.9,64.1,29.94,WNW,293,0.0,0.0,97,-99.99,,,-99.99,HomebrewedOnLinux,2013-01-12 05:00:00,
2013-01-12 00:05:00,64.9,64.1,29.94,WNW,295,0.0,0.0,97,-99.99,,,-99.99,HomebrewedOnLinux,2013-01-12 05:05:00,
2013-01-12 00:10:00,64.8,63.9,29.94,NW,304,0.0,0.0,97,-99.99,,,-99.99,HomebrewedOnLinux,2013-01-12 05:10:00,
2013-01-12 00:15:00,64.9,64.1,29.94,WNW,293,0.0,0.0,97,-99.99,,,-99.99,HomebrewedOnLinux,2013-01-12 05:15:00,
2013-01-12 00:20:00,64.8,63.9,29.94,WNW,290,0.0,0.0,97,-99.99,,,-99.99,HomebrewedOnLinux,2013-01-12 05:20:00,
2013-01-12 00:25:00,64.8,63.9,29.94,WNW,287,0.0,0.0,97,-99.99,,,-99.99,HomebrewedOnLinux,2013-01-12 05:25:00,
2013-01-12 00:30:00,64.8,63.9,29.94,WNW,282,0.0,0.0,97,-99.99,,,-99.99,HomebrewedOnLinux,2013-01-12 05:30:00,
2013-01-12 00:35:00,64.6,63.7,29.94,WNW,293,0.0,0.0,97,-99.99,,,-99.99,HomebrewedOnLinux,2013-01-12 05:35:00,
2013-01-12 00:40:00,64.6,63.7,29.94,WNW,292,0.0,0.0,97,-99.99,,,-99.99,HomebrewedOnLinux,2013-01-12 05:40:00,
2013-01-12 00:45:00,64.6,63.7,29.94,WSW,258,0.0,0.0,97,-99.99,,,-99.99,HomebrewedOnLinux,2013-01-12 05:45:00,
2013-01-12 00:50:00,64.4,63.5,29.94,West,270,0.0,0.0,97,-99.99,,,-99.99,HomebrewedOnLinux,2013-01-12 05:50:00,
2013-01-12 00:55:00,64.2,63.3,29.94,West,270,0.0,0.0,97,-99.99,,,-99.99,HomebrewedOnLinux,2013-01-12 05:55:00,
2013-01-12 01:00:00,64.2,63.3,29.94,West,270,0.0,0.0,97,-99.99,,,-99.99,HomebrewedOnLinux,2013-01-12 06:00:00,
2013-01-12 01:05:00,64.0,63.2,29.94,West,270,0.0,0.0,97,-99.99,,,-99.99,HomebrewedOnLinux,2013-01-12 06:05:00,
2013-01-12 01:10:00,63.9,63.0,29.94,West,270,0.0,0.0,97,-99.99,,,-99.99,HomebrewedOnLinux,2013-01-12 06:10:00,
2013-01-12 01:15:00,63.7,62.8,29.94,West,270,0.0,0.0,97,-99.99,,,-99.99,HomebrewedOnLinux,2013-01-12 06:15:00,
2013-01-12 01:20:00,63.5,62.6,29.94,West,270,0.0,0.0,97,-99.99,,,-99.99,HomebrewedOnLinux,2013-01-12 06:20:00,
2013-01-12 01:25:00,63.5,62.6,29.94,West,270,0.0,0.0,97,-99.99,,,-99.99,HomebrewedOnLinux,2013-01-12 06:25:00,
2013-01-12 01:30:00,63.3,62.5,29.94,West,270,0.0,0.0,97,-99.99,,,-99.99,HomebrewedOnLinux,2013-01-12 06:30:00,
2013-01-12 01:35:00,63.3,62.7,29.94,West,270,0.0,0.0,98,-99.99,,,-99.99,HomebrewedOnLinux,2013-01-12 06:35:00,
2013-01-12 01:40:00,63.1,62.6,29.94,West,270,0.0,0.0,98,-99.99,,,-99.99,HomebrewedOnLinux,2013-01-12 06:40:00,
2013-01-12 01:45:00,63.1,62.6,29.94,West,270,0.0,0.0,98,-99.99,,,-99.99,HomebrewedOnLinux,2013-01-12 06:45:00,
2013-01-12 01:50:00,63.0,62.4,29.94,West,270,0.0,0.0,98,-99.99,,,-99.99,HomebrewedOnLinux,2013-01-12 06:50:00,
2013-01-12 02:01:00,62.8,62.2,29.94,West,270,0.0,0.0,98,-99.99,,,-99.99,HomebrewedOnLinux,2013-01-12 07:01:00,
2013-01-12 02:10:00,62.6,62.0,29.94,West,270,0.0,0.0,98,-99.99,,,-99.99,HomebrewedOnLinux,2013-01-12 07:10:00,
2013-01-12 02:15:00,62.4,61.8,29.94,West,270,0.0,0.0,98,-99.99,,,-99.99,HomebrewedOnLinux,2013-01-12 07:15:00,
2013-01-12 02:20:00,62.2,61.7,29.94,West,270,0.0,0.0,98,-99.99,,,-99.99,HomebrewedOnLinux,2013-01-12 07:20:00,
2013-01-12 02:30:00,61.9,61.3,29.94,West,270,0.0,0.0,98,-99.99,,,-99.99,HomebrewedOnLinux,2013-01-12 07:30:00,
2013-01-12 02:40:00,61.7,61.1,29.94,West,270,0.0,0.0,98,-99.99,,,-99.99,HomebrewedOnLinux,2013-01-12 07:40:00,
2013-01-12 02:50:00,61.5,60.9,29.94,West,270,0.0,0.0,98,-99.99,,,-99.99,HomebrewedOnLinux,2013-01-12 07:50:00,
2013-01-12 02:55:00,61.3,60.8,29.94,West,270,0.0,0.0,98,-99.99,,,-99.99,HomebrewedOnLinux,2013-01-12 07:55:00,
2013-01-12 03:05:00,61.2,60.6,29.94,West,270,0.0,0.0,98,-99.99,,,-99.99,HomebrewedOnLinux,2013-01-12 08:05:00,
2013-01-12 03:10:00,61.0,60.4,29.94,West,270,0.0,0.0,98,-99.99,,,-99.99,HomebrewedOnLinux,2013-01-12 08:10:00,
2013-01-12 03:15:00,61.0,60.4,29.94,West,270,0.0,0.0,98,-99.99,,,-99.99,HomebrewedOnLinux,2013-01-12 08:15:00,
2013-01-12 03:20:00,60.8,60.2,29.94,West,270,0.0,0.0,98,-99.99,,,-99.99,HomebrewedOnLinux,2013-01-12 08:20:00,
2013-01-12 03:25:00,60.8,60.2,29.94,West,270,0.0,0.0,98,-99.99,,,-99.99,HomebrewedOnLinux,2013-01-12 08:25:00,
2013-01-12 03:30:00,60.6,60.1,29.94,West,270,0.0,0.0,98,-99.99,,,-99.99,HomebrewedOnLinux,2013-01-12 08:30:00,
2013-01-12 03:40:00,60.4,59.9,29.94,West,270,0.0,0.0,98,-99.99,,,-99.99,HomebrewedOnLinux,2013-01-12 08:40:00,
2013-01-12 03:45:00,60.4,59.9,29.94,West,270,0.0,0.0,98,-99.99,,,-99.99,HomebrewedOnLinux,2013-01-12 08:45:00,
2013-01-12 03:50:00,60.3,59.7,29.94,West,270,0.0,0.0,98,-99.99,,,-99.99,HomebrewedOnLinux,2013-01-12 08:50:00,
2013-01-12 04:00:00,60.1,59.5,29.94,West,270,0.0,0.0,98,-99.99,,,-99.99,HomebrewedOnLinux,2013-01-12 09:00:00,
2013-01-12 04:10:00,59.9,59.3,29.94,West,270,0.0,0.0,98,-99.99,,,-99.99,HomebrewedOnLinux,2013-01-12 09:10:00,
2013-01-12 04:15:00,59.9,59.3,29.94,West,270,0.0,0.0,98,-99.99,,,-99.99,HomebrewedOnLinux,2013-01-12 09:15:00,
2013-01-12 04:25:00,59.5,59.0,29.94,West,270,0.0,0.0,98,-99.99,,,-99.99,HomebrewedOnLinux,2013-01-12 09:25:00,
2013-01-12 04:35:00,59.5,59.0,29.94,West,270,0.0,0.0,98,-99.99,,,-99.99,HomebrewedOnLinux,2013-01-12 09:35:00,
2013-01-12 04:40:00,59.4,58.8,29.94,West,270,0.0,0.0,98,-99.99,,,-99.99,HomebrewedOnLinux,2013-01-12 09:40:00,
2013-01-12 04:50:00,59.2,58.6,29.94,West,270,0.0,0.0,98,-99.99,,,-99.99,HomebrewedOnLinux,2013-01-12 09:50:00,
2013-01-12 05:00:00,59.2,58.6,29.91,West,270,0.0,0.0,98,-99.99,,,-99.99,HomebrewedOnLinux,2013-01-12 10:00:00,
2013-01-12 05:10:00,59.0,58.4,29.91,West,270,0.0,0.0,98,-99.99,,,-99.99,HomebrewedOnLinux,2013-01-12 10:10:00,
2013-01-12 05:15:00,58.8,58.3,29.91,West,270,0.0,0.0,98,-99.99,,,-99.99,HomebrewedOnLinux,2013-01-12 10:15:00,
2013-01-12 05:25:00,58.8,58.3,29.94,West,270,0.0,0.0,98,-99.99,,,-99.99,HomebrewedOnLinux,2013-01-12 10:25:00,
2013-01-12 05:35:00,58.6,58.1,29.94,West,270,0.0,0.0,98,-99.99,,,-99.99,HomebrewedOnLinux,2013-01-12 10:35:00,
2013-01-12 05:45:00,58.6,58.1,29.94,West,270,0.0,0.0,98,-99.99,,,-99.99,HomebrewedOnLinux,2013-01-12 10:45:00,
2013-01-12 05:55:00,58.5,57.9,29.94,West,270,0.0,0.0,98,-99.99,,,-99.99,HomebrewedOnLinux,2013-01-12 10:55:00,
2013-01-12 06:00:00,58.5,57.9,29.94,West,270,0.0,0.0,98,-99.99,,,-99.99,HomebrewedOnLinux,2013-01-12 11:00:00,
2013-01-12 06:10:00,58.3,57.7,29.94,West,270,0.0,0.0,98,-99.99,,,-99.99,HomebrewedOnLinux,2013-01-12 11:10:00,
2013-01-12 06:20:00,58.1,57.5,29.94,West,270,0.0,0.0,98,-99.99,,,-99.99,HomebrewedOnLinux,2013-01-12 11:20:00,
2013-01-12 06:25:00,58.1,57.5,29.94,West,270,0.0,0.0,98,-99.99,,,-99.99,HomebrewedOnLinux,2013-01-12 11:25:00,
2013-01-12 06:35:00,57.9,57.4,29.94,West,270,0.0,0.0,98,-99.99,,,-99.99,HomebrewedOnLinux,2013-01-12 11:35:00,
2013-01-12 06:45:00,57.9,57.4,29.94,West,270,0.0,0.0,98,-99.99,,,-99.99,HomebrewedOnLinux,2013-01-12 11:45:00,
2013-01-12 06:55:00,57.7,57.2,29.94,West,270,0.0,0.0,98,-99.99,,,-99.99,HomebrewedOnLinux,2013-01-12 11:55:00,
2013-01-12 07:00:00,57.7,57.2,29.94,West,270,0.0,0.0,98,-99.99,,,-99.99,HomebrewedOnLinux,2013-01-12 12:00:00,
2013-01-12 07:05:00,57.7,57.2,29.94,West,270,0.0,0.0,98,-99.99,,,-99.99,HomebrewedOnLinux,2013-01-12 12:05:00,
2013-01-12 07:10:00,57.7,57.2,29.94,West,270,0.0,0.0,98,-99.99,,,-99.99,HomebrewedOnLinux,2013-01-12 12:10:00,
2013-01-12 07:20:00,57.7,57.2,29.94,West,270,0.0,0.0,98,-99.99,,,-99.99,HomebrewedOnLinux,2013-01-12 12:20:00,
2013-01-12 07:30:00,57.7,57.2,29.94,West,270,0.0,0.0,98,-99.99,,,-99.99,HomebrewedOnLinux,2013-01-12 12:30:00,
2013-01-12 07:40:00,57.9,57.4,29.94,West,270,0.0,0.0,98,-99.99,,,-99.99,HomebrewedOnLinux,2013-01-12 12:40:00,
2013-01-12 07:45:00,57.9,57.4,29.94,West,270,0.0,0.0,98,-99.99,,,-99.99,HomebrewedOnLinux,2013-01-12 12:45:00,
2013-01-12 07:55:00,58.1,57.5,29.94,West,270,0.0,0.0,98,-99.99,,,-99.99,HomebrewedOnLinux,2013-01-12 12:55:00,
2013-01-12 08:05:00,58.3,57.7,29.94,West,270,0.0,0.0,98,-99.99,,,-99.99,HomebrewedOnLinux,2013-01-12 13:05:00,
2013-01-12 08:10:00,58.5,57.9,29.97,West,270,0.0,0.0,98,-99.99,,,-99.99,HomebrewedOnLinux,2013-01-12 13:10:00,
2013-01-12 08:20:00,58.6,58.1,29.97,West,270,0.0,0.0,98,-99.99,,,-99.99,HomebrewedOnLinux,2013-01-12 13:20:00,
2013-01-12 08:25:00,58.8,58.3,29.97,West,270,0.0,0.0,98,-99.99,,,-99.99,HomebrewedOnLinux,2013-01-12 13:25:00,
2013-01-12 08:30:00,58.8,58.3,29.97,West,270,0.0,0.0,98,-99.99,,,-99.99,HomebrewedOnLinux,2013-01-12 13:30:00,
2013-01-12 08:40:00,59.2,58.6,29.97,West,270,0.0,0.0,98,-99.99,,,-99.99,HomebrewedOnLinux,2013-01-12 13:40:00,
2013-01-12 08:45:00,59.4,58.8,29.97,West,270,0.0,0.0,98,-99.99,,,-99.99,HomebrewedOnLinux,2013-01-12 13:45:00,
2013-01-12 08:55:00,59.9,59.3,29.97,West,270,0.0,0.0,98,-99.99,,,-99.99,HomebrewedOnLinux,2013-01-12 13:55:00,
2013-01-12 09:05:00,60.6,60.1,29.97,West,276,0.0,0.0,98,-99.99,,,-99.99,HomebrewedOnLinux,2013-01-12 14:05:00,
2013-01-12 09:15:00,61.2,60.6,29.97,WSW,247,0.0,0.0,98,-99.99,,,-99.99,HomebrewedOnLinux,2013-01-12 14:15:00,
2013-01-12 09:20:00,61.5,60.9,29.97,SSW,204,0.0,0.0,98,-99.99,,,-99.99,HomebrewedOnLinux,2013-01-12 14:20:00,
2013-01-12 09:30:00,62.2,61.7,29.94,WSW,241,0.0,1.0,98,-99.99,,,-99.99,HomebrewedOnLinux,2013-01-12 14:30:00,
2013-01-12 09:40:00,62.8,62.2,29.97,WSW,240,0.0,0.0,98,-99.99,,,-99.99,HomebrewedOnLinux,2013-01-12 14:40:00,
2013-01-12 09:50:00,63.3,62.7,29.97,WSW,242,0.0,0.0,98,-99.99,,,-99.99,HomebrewedOnLinux,2013-01-12 14:50:00,
2013-01-12 09:55:00,63.7,63.1,29.94,WSW,241,0.0,0.0,98,-99.99,,,-99.99,HomebrewedOnLinux,2013-01-12 14:55:00,
2013-01-12 10:05:00,64.2,63.6,29.94,WSW,247,0.0,0.0,98,-99.99,,,-99.99,HomebrewedOnLinux,2013-01-12 15:05:00,
2013-01-12 10:15:00,64.8,64.2,29.94,NNW,338,0.0,0.0,98,-99.99,,,-99.99,HomebrewedOnLinux,2013-01-12 15:15:00,
2013-01-12 10:20:00,64.8,64.2,29.94,NW,325,0.0,0.0,98,-99.99,,,-99.99,HomebrewedOnLinux,2013-01-12 15:20:00,
2013-01-12 10:30:00,65.1,64.5,29.94,West,270,0.0,0.0,98,-99.99,,,-99.99,HomebrewedOnLinux,2013-01-12 15:30:00,
2013-01-12 10:40:00,65.5,64.6,29.97,West,270,0.0,0.0,97,-99.99,,,-99.99,HomebrewedOnLinux,2013-01-12 15:40:00,
2013-01-12 10:50:00,65.8,65.0,29.97,WNW,293,0.0,0.0,97,-99.99,,,-99.99,HomebrewedOnLinux,2013-01-12 15:50:00,
2013-01-12 10:55:00,66.2,65.1,29.97,West,262,0.0,0.0,96,-99.99,,,-99.99,HomebrewedOnLinux,2013-01-12 15:55:00,
2013-01-12 11:00:00,66.6,65.3,29.97,SSW,207,0.0,0.0,96,-99.99,,,-99.99,HomebrewedOnLinux,2013-01-12 16:00:00,
2013-01-12 11:05:00,67.1,65.6,29.97,SSW,202,0.0,0.0,95,-99.99,,,-99.99,HomebrewedOnLinux,2013-01-12 16:05:00,
2013-01-12 11:15:00,67.8,65.7,29.97,NW,314,0.0,0.0,93,-99.99,,,-99.99,HomebrewedOnLinux,2013-01-12 16:15:00,
2013-01-12 11:25:00,68.4,66.0,29.97,West,278,1.0,3.0,92,-99.99,,,-99.99,HomebrewedOnLinux,2013-01-12 16:25:00,
2013-01-12 11:35:00,69.1,65.8,29.97,West,277,2.0,4.0,89,-99.99,,,-99.99,HomebrewedOnLinux,2013-01-12 16:35:00,
2013-01-12 11:40:00,69.6,66.1,29.94,WNW,303,1.0,2.0,89,-99.99,,,-99.99,HomebrewedOnLinux,2013-01-12 16:40:00,
2013-01-12 11:50:00,70.3,65.9,29.94,WNW,296,2.0,3.0,86,-99.99,,,-99.99,HomebrewedOnLinux,2013-01-12 16:50:00,
2013-01-12 12:00:00,71.4,65.8,29.94,NW,309,1.0,3.0,83,-99.99,,,-99.99,HomebrewedOnLinux,2013-01-12 17:00:00,
2013-01-12 12:05:00,71.8,65.8,29.94,West,264,1.0,2.0,82,-99.99,,,-99.99,HomebrewedOnLinux,2013-01-12 17:05:00,
2013-01-12 12:15:00,72.5,65.7,29.94,WNW,295,1.0,3.0,79,-99.99,,,-99.99,HomebrewedOnLinux,2013-01-12 17:15:00,
2013-01-12 12:25:00,73.0,65.7,29.94,WNW,285,3.0,5.0,78,-99.99,,,-99.99,HomebrewedOnLinux,2013-01-12 17:25:00,
2013-01-12 12:35:00,73.6,64.8,29.94,North,351,0.0,3.0,74,-99.99,,,-99.99,HomebrewedOnLinux,2013-01-12 17:35:00,
2013-01-12 12:40:00,73.9,65.3,29.91,WNW,298,2.0,3.0,74,-99.99,,,-99.99,HomebrewedOnLinux,2013-01-12 17:40:00,
2013-01-12 12:45:00,74.3,65.3,29.91,West,269,0.0,1.0,74,-99.99,,,-99.99,HomebrewedOnLinux,2013-01-12 17:45:00,
2013-01-12 12:50:00,74.5,65.0,29.91,West,265,3.0,4.0,72,-99.99,,,-99.99,HomebrewedOnLinux,2013-01-12 17:50:00,
2013-01-12 13:00:00,75.2,65.1,29.91,North,11,2.0,3.0,71,-99.99,,,-99.99,HomebrewedOnLinux,2013-01-12 18:00:00,
2013-01-12 13:10:00,75.7,64.6,29.91,NW,324,1.0,2.0,68,-99.99,,,-99.99,HomebrewedOnLinux,2013-01-12 18:10:00,
2013-01-12 13:15:00,75.7,64.2,29.91,WNW,301,2.0,4.0,68,-99.99,,,-99.99,HomebrewedOnLinux,2013-01-12 18:15:00,
2013-01-12 13:20:00,75.7,64.3,29.91,West,277,2.0,4.0,68,-99.99,,,-99.99,HomebrewedOnLinux,2013-01-12 18:20:00,
2013-01-12 13:30:00,76.3,64.5,29.88,WNW,297,1.0,3.0,67,-99.99,,,-99.99,HomebrewedOnLinux,2013-01-12 18:30:00,
2013-01-12 13:35:00,76.6,64.5,29.88,West,276,2.0,3.0,66,-99.99,,,-99.99,HomebrewedOnLinux,2013-01-12 18:35:00,
2013-01-12 13:45:00,77.0,64.6,29.88,North,1,1.0,2.0,66,-99.99,,,-99.99,HomebrewedOnLinux,2013-01-12 18:45:00,
2013-01-12 13:55:00,77.0,63.9,29.91,NW,311,0.0,1.0,64,-99.99,,,-99.99,HomebrewedOnLinux,2013-01-12 18:55:00,
2013-01-12 14:00:00,77.4,64.1,29.91,NNW,329,1.0,2.0,64,-99.99,,,-99.99,HomebrewedOnLinux,2013-01-12 19:00:00,
2013-01-12 14:10:00,78.1,64.5,29.91,West,281,1.0,3.0,63,-99.99,,,-99.99,HomebrewedOnLinux,2013-01-12 19:10:00,
2013-01-12 14:15:00,78.3,64.6,29.91,NNW,333,1.0,3.0,63,-99.99,,,-99.99,HomebrewedOnLinux,2013-01-12 19:15:00,
2013-01-12 14:20:00,78.6,64.9,29.91,WSW,254,3.0,4.0,63,-99.99,,,-99.99,HomebrewedOnLinux,2013-01-12 19:20:00,
2013-01-12 14:25:00,78.8,64.8,29.91,NW,319,1.0,3.0,62,-99.99,,,-99.99,HomebrewedOnLinux,2013-01-12 19:25:00,
2013-01-12 14:30:00,79.2,64.8,29.91,NNW,334,2.0,3.0,62,-99.99,,,-99.99,HomebrewedOnLinux,2013-01-12 19:30:00,
2013-01-12 14:35:00,79.2,64.6,29.91,WNW,298,2.0,3.0,61,-99.99,,,-99.99,HomebrewedOnLinux,2013-01-12 19:35:00,
2013-01-12 14:45:00,78.4,63.8,29.91,NE,46,0.0,2.0,61,-99.99,,,-99.99,HomebrewedOnLinux,2013-01-12 19:45:00,
2013-01-12 14:55:00,77.5,63.2,29.91,West,268,1.0,3.0,61,-99.99,,,-99.99,HomebrewedOnLinux,2013-01-12 19:55:00,
2013-01-12 15:05:00,77.4,62.8,29.91,NW,306,1.0,3.0,61,-99.99,,,-99.99,HomebrewedOnLinux,2013-01-12 20:05:00,
2013-01-12 15:15:00,76.6,62.7,29.91,West,269,2.0,3.0,62,-99.99,,,-99.99,HomebrewedOnLinux,2013-01-12 20:15:00,
2013-01-12 15:20:00,76.5,62.5,29.91,West,269,2.0,4.0,62,-99.99,,,-99.99,HomebrewedOnLinux,2013-01-12 20:20:00,
2013-01-12 15:30:00,76.5,62.4,29.91,West,266,2.0,4.0,62,-99.99,,,-99.99,HomebrewedOnLinux,2013-01-12 20:30:00,
2013-01-12 15:40:00,76.3,62.4,29.91,West,261,2.0,3.0,62,-99.99,,,-99.99,HomebrewedOnLinux,2013-01-12 20:40:00,
2013-01-12 15:45:00,76.1,62.4,29.91,WNW,287,1.0,2.0,63,-99.99,,,-99.99,HomebrewedOnLinux,2013-01-12 20:45:00,
2013-01-12 15:55:00,75.6,61.9,29.88,West,274,1.0,3.0,63,-99.99,,,-99.99,HomebrewedOnLinux,2013-01-12 20:55:00,
2013-01-12 16:05:00,75.2,61.7,29.88,West,280,1.0,3.0,63,-99.99,,,-99.99,HomebrewedOnLinux,2013-01-12 21:05:00,
2013-01-12 16:15:00,74.8,62.0,29.88,West,261,1.0,2.0,64,-99.99,,,-99.99,HomebrewedOnLinux,2013-01-12 21:15:00,
2013-01-12 16:20:00,74.8,62.3,29.88,WSW,246,3.0,6.0,65,-99.99,,,-99.99,HomebrewedOnLinux,2013-01-12 21:20:00,
2013-01-12 16:30:00,74.5,61.9,29.88,WNW,284,0.0,0.0,65,-99.99,,,-99.99,HomebrewedOnLinux,2013-01-12 21:30:00,
2013-01-12 16:35:00,74.3,61.8,29.88,WNW,290,0.0,2.0,65,-99.99,,,-99.99,HomebrewedOnLinux,2013-01-12 21:35:00,
2013-01-12 16:40:00,73.9,61.8,29.88,WNW,292,1.0,2.0,66,-99.99,,,-99.99,HomebrewedOnLinux,2013-01-12 21:40:00,
2013-01-12 16:50:00,73.4,61.3,29.88,WNW,291,0.0,1.0,66,-99.99,,,-99.99,HomebrewedOnLinux,2013-01-12 21:50:00,
2013-01-12 16:55:00,73.0,61.4,29.91,West,270,0.0,0.0,67,-99.99,,,-99.99,HomebrewedOnLinux,2013-01-12 21:55:00,
2013-01-12 17:05:00,72.7,61.6,29.91,West,270,0.0,0.0,68,-99.99,,,-99.99,HomebrewedOnLinux,2013-01-12 22:05:00,
2013-01-12 17:15:00,72.1,61.5,29.91,WSW,257,0.0,2.0,69,-99.99,,,-99.99,HomebrewedOnLinux,2013-01-12 22:15:00,
2013-01-12 17:25:00,71.6,61.3,29.91,SE,127,2.0,3.0,70,-99.99,,,-99.99,HomebrewedOnLinux,2013-01-12 22:25:00,
2013-01-12 17:30:00,71.4,61.3,29.91,West,272,1.0,2.0,70,-99.99,,,-99.99,HomebrewedOnLinux,2013-01-12 22:30:00,
2013-01-12 17:40:00,70.9,61.0,29.88,NNW,330,0.0,2.0,71,-99.99,,,-99.99,HomebrewedOnLinux,2013-01-12 22:40:00,
2013-01-12 17:50:00,70.2,60.7,29.88,NW,315,0.0,1.0,72,-99.99,,,-99.99,HomebrewedOnLinux,2013-01-12 22:50:00,
2013-01-12 18:00:00,69.6,60.6,29.91,NW,315,0.0,0.0,73,-99.99,,,-99.99,HomebrewedOnLinux,2013-01-12 23:00:00,
2013-01-12 18:10:00,69.1,60.4,29.88,NW,315,0.0,0.0,74,-99.99,,,-99.99,HomebrewedOnLinux,2013-01-12 23:10:00,
2013-01-12 18:15:00,68.9,60.5,29.88,NW,315,0.0,0.0,74,-99.99,,,-99.99,HomebrewedOnLinux,2013-01-12 23:15:00,
2013-01-12 18:20:00,68.5,60.3,29.88,NW,315,0.0,0.0,75,-99.99,,,-99.99,HomebrewedOnLinux,2013-01-12 23:20:00,
2013-01-12 18:25:00,68.4,60.2,29.88,NW,315,0.0,0.0,75,-99.99,,,-99.99,HomebrewedOnLinux,2013-01-12 23:25:00,
2013-01-12 18:35:00,68.0,60.1,29.88,NW,315,0.0,0.0,76,-99.99,,,-99.99,HomebrewedOnLinux,2013-01-12 23:35:00,
2013-01-12 18:40:00,67.8,60.3,29.88,NW,315,0.0,0.0,77,-99.99,,,-99.99,HomebrewedOnLinux,2013-01-12 23:40:00,
2013-01-12 18:50:00,67.5,60.3,29.88,NW,315,0.0,0.0,78,-99.99,,,-99.99,HomebrewedOnLinux,2013-01-12 23:50:00,
2013-01-12 19:00:00,67.1,60.0,29.88,NW,315,0.0,0.0,78,-99.99,,,-99.99,HomebrewedOnLinux,2013-01-13 00:00:00,
2013-01-12 19:10:00,66.7,59.9,29.88,NW,315,0.0,0.0,79,-99.99,,,-99.99,HomebrewedOnLinux,2013-01-13 00:10:00,
2013-01-12 19:15:00,66.7,60.0,29.88,NW,315,0.0,1.0,79,-99.99,,,-99.99,HomebrewedOnLinux,2013-01-13 00:15:00,
2013-01-12 19:25:00,66.4,59.8,29.88,NW,315,0.0,0.0,79,-99.99,,,-99.99,HomebrewedOnLinux,2013-01-13 00:25:00,
2013-01-12 19:35:00,66.0,59.7,29.88,NW,315,0.0,0.0,80,-99.99,,,-99.99,HomebrewedOnLinux,2013-01-13 00:35:00,
2013-01-12 19:45:00,65.8,59.8,29.85,NW,315,0.0,0.0,81,-99.99,,,-99.99,HomebrewedOnLinux,2013-01-13 00:45:00,
2013-01-12 19:50:00,65.8,59.8,29.85,NW,315,0.0,0.0,81,-99.99,,,-99.99,HomebrewedOnLinux,2013-01-13 00:50:00,
2013-01-12 20:00:00,65.7,59.7,29.85,NW,315,0.0,0.0,81,-99.99,,,-99.99,HomebrewedOnLinux,2013-01-13 01:00:00,
2013-01-12 20:10:00,65.5,59.8,29.85,NW,315,0.0,0.0,82,-99.99,,,-99.99,HomebrewedOnLinux,2013-01-13 01:10:00,
2013-01-12 20:20:00,65.3,59.7,29.85,NW,315,0.0,0.0,82,-99.99,,,-99.99,HomebrewedOnLinux,2013-01-13 01:20:00,
2013-01-12 20:30:00,65.1,59.5,29.85,NW,315,0.0,0.0,82,-99.99,,,-99.99,HomebrewedOnLinux,2013-01-13 01:30:00,
2013-01-12 20:35:00,64.9,59.6,29.85,NW,315,0.0,0.0,83,-99.99,,,-99.99,HomebrewedOnLinux,2013-01-13 01:35:00,
2013-01-12 20:45:00,64.8,59.5,29.88,NW,315,0.0,0.0,83,-99.99,,,-99.99,HomebrewedOnLinux,2013-01-13 01:45:00,
2013-01-12 20:55:00,64.4,59.1,29.85,NW,315,0.0,0.0,83,-99.99,,,-99.99,HomebrewedOnLinux,2013-01-13 01:55:00,
2013-01-12 21:05:00,64.2,59.3,29.85,NW,315,0.0,0.0,84,-99.99,,,-99.99,HomebrewedOnLinux,2013-01-13 02:05:00,
2013-01-12 21:10:00,64.2,59.5,29.88,NW,315,0.0,0.0,85,-99.99,,,-99.99,HomebrewedOnLinux,2013-01-13 02:10:00,
2013-01-12 21:20:00,63.9,59.3,29.88,NW,315,0.0,0.0,85,-99.99,,,-99.99,HomebrewedOnLinux,2013-01-13 02:20:00,
2013-01-12 21:30:00,63.7,59.3,29.88,NW,315,0.0,0.0,86,-99.99,,,-99.99,HomebrewedOnLinux,2013-01-13 02:30:00,
2013-01-12 21:35:00,63.5,59.2,29.88,NW,315,0.0,0.0,86,-99.99,,,-99.99,HomebrewedOnLinux,2013-01-13 02:35:00,
2013-01-12 21:45:00,63.1,58.9,29.88,NW,315,0.0,0.0,86,-99.99,,,-99.99,HomebrewedOnLinux,2013-01-13 02:45:00,
2013-01-12 21:55:00,63.0,58.7,29.88,NW,315,0.0,0.0,86,-99.99,,,-99.99,HomebrewedOnLinux,2013-01-13 02:55:00,
2013-01-12 22:00:00,62.8,58.8,29.88,NW,315,0.0,0.0,87,-99.99,,,-99.99,HomebrewedOnLinux,2013-01-13 03:00:00,
2013-01-12 22:10:00,62.6,58.7,29.88,NW,315,0.0,0.0,87,-99.99,,,-99.99,HomebrewedOnLinux,2013-01-13 03:10:00,
2013-01-12 22:15:00,62.4,58.8,29.88,NW,315,0.0,0.0,88,-99.99,,,-99.99,HomebrewedOnLinux,2013-01-13 03:15:00,
2013-01-12 22:20:00,62.2,58.6,29.88,NW,315,0.0,0.0,88,-99.99,,,-99.99,HomebrewedOnLinux,2013-01-13 03:20:00,
2013-01-12 22:30:00,62.1,58.7,29.88,NW,315,0.0,0.0,89,-99.99,,,-99.99,HomebrewedOnLinux,2013-01-13 03:30:00,
2013-01-12 22:40:00,61.9,58.6,29.88,NW,315,0.0,0.0,89,-99.99,,,-99.99,HomebrewedOnLinux,2013-01-13 03:40:00,
2013-01-12 22:45:00,61.7,58.4,29.88,NW,315,0.0,0.0,89,-99.99,,,-99.99,HomebrewedOnLinux,2013-01-13 03:45:00,
2013-01-12 22:55:00,61.5,58.2,29.88,NW,315,0.0,0.0,89,-99.99,,,-99.99,HomebrewedOnLinux,2013-01-13 03:55:00,
2013-01-12 23:05:00,61.3,58.4,29.88,NW,315,0.0,0.0,90,-99.99,,,-99.99,HomebrewedOnLinux,2013-01-13 04:05:00,
2013-01-12 23:15:00,61.0,58.0,29.88,NW,315,0.0,0.0,90,-99.99,,,-99.99,HomebrewedOnLinux,2013-01-13 04:15:00,
2013-01-12 23:20:00,61.0,58.0,29.88,NW,315,0.0,0.0,90,-99.99,,,-99.99,HomebrewedOnLinux,2013-01-13 04:20:00,
2013-01-12 23:30:00,60.8,57.8,29.88,NW,315,0.0,0.0,90,-99.99,,,-99.99,HomebrewedOnLinux,2013-01-13 04:30:00,
2013-01-12 23:40:00,60.6,58.0,29.88,NW,315,0.0,0.0,91,-99.99,,,-99.99,HomebrewedOnLinux,2013-01-13 04:40:00,
2013-01-12 23:50:00,60.4,57.8,29.88,NW,315,0.0,0.0,91,-99.99,,,-99.99,HomebrewedOnLinux,2013-01-13 04:50:00,
2013-01-12 23:55:00,60.4,57.8,29.88,NW,315,0.0,0.0,91,-99.99,,,-99.99,HomebrewedOnLinux,2013-01-13 04:55:00,